| time (UTC) | temp F | wind direction | speed knots | gust knots | rain 1hr in | rain 24hr in | rain mn in | humidity % | barometer mb |
| 20260504041534 | 44 | 120 | 0.0 | 0.0 | 0.00 | 0.01 | 0.01 | 90 | 1016.3 |
| 20260504040038 | 44 | 120 | 0.0 | 0.0 | 0.00 | 0.01 | 0.01 | 89 | 1016.4 |
| 20260504034535 | 45 | 121 | 0.0 | 0.9 | 0.00 | 0.01 | 0.01 | 89 | 1016.6 |
| 20260504033046 | 45 | 137 | 0.0 | 0.0 | 0.00 | 0.01 | 0.01 | 88 | 1016.7 |
| 20260504030032 | 47 | 137 | 0.0 | 0.0 | 0.00 | 0.01 | 0.01 | 85 | 1016.7 |
| 20260504024543 | 47 | 125 | 0.0 | 0.0 | 0.00 | 0.01 | 0.01 | 84 | 1016.6 |
| 20260504023031 | 48 | 125 | 0.0 | 0.0 | 0.00 | 0.01 | 0.01 | 82 | 1016.4 |
| 20260504021531 | 48 | 125 | 0.0 | 0.0 | 0.00 | 0.01 | 0.01 | 82 | 1016.1 |
| 20260504020030 | 49 | 129 | 0.0 | 0.9 | 0.00 | 0.01 | 0.01 | 80 | 1015.8 |
| 20260504014530 | 50 | 130 | 0.0 | 0.9 | 0.00 | 0.01 | 0.01 | 77 | 1015.6 |
| 20260504013029 | 51 | 140 | 0.0 | 0.9 | 0.00 | 0.01 | 0.01 | 76 | 1015.5 |
| 20260504011528 | 53 | 129 | 0.0 | 0.9 | 0.00 | 0.01 | 0.01 | 71 | 1015.7 |
| 20260504010029 | 56 | 140 | 0.0 | 2.6 | 0.00 | 0.01 | 0.01 | 64 | 1015.4 |
| 20260504004540 | 58 | 152 | 0.9 | 1.7 | 0.00 | 0.01 | 0.01 | 58 | 1015.5 |
| 20260504003027 | 62 | 151 | 1.7 | 1.7 | 0.00 | 0.01 | 0.01 | 47 | 1015.5 |
| 20260504001526 | 65 | 160 | 0.0 | 0.9 | 0.00 | 0.01 | 0.01 | 40 | 1015.6 |
| 20260504000024 | 66 | 257 | 0.9 | 3.5 | 0.00 | 0.01 | 0.01 | 37 | 1015.8 |
| 20260503234524 | 66 | 288 | 1.7 | 6.1 | 0.00 | 0.01 | 0.01 | 36 | 1015.9 |
| 20260503233029 | 67 | 269 | 0.0 | 6.1 | 0.00 | 0.01 | 0.01 | 37 | 1015.7 |
| 20260503231522 | 67 | 232 | 0.9 | 7.0 | 0.00 | 0.01 | 0.01 | 36 | 1015.7 |
| 20260503230019 | 67 | 248 | 4.3 | 8.7 | 0.00 | 0.01 | 0.01 | 35 | 1016.1 |
| 20260503224517 | 66 | 252 | 1.7 | 8.7 | 0.00 | 0.02 | 0.01 | 38 | 1016.3 |
| 20260503223017 | 66 | 241 | 0.9 | 7.8 | 0.00 | 0.02 | 0.01 | 38 | 1016.4 |
| 20260503221516 | 66 | 273 | 3.5 | 7.8 | 0.00 | 0.02 | 0.01 | 38 | 1016.6 |
| 20260503220015 | 66 | 289 | 6.1 | 8.7 | 0.00 | 0.02 | 0.01 | 37 | 1016.8 |
| 20260503214511 | 66 | 297 | 4.3 | 7.0 | 0.00 | 0.02 | 0.01 | 37 | 1016.9 |
| 20260503213015 | 66 | 236 | 4.3 | 8.7 | 0.00 | 0.02 | 0.01 | 38 | 1017.1 |
| 20260503211506 | 66 | 187 | 1.7 | 7.8 | 0.00 | 0.02 | 0.01 | 38 | 1017.2 |
| 20260503210004 | 65 | 329 | 4.3 | 9.6 | 0.00 | 0.02 | 0.01 | 37 | 1017.5 |
| 20260503204501 | 65 | 287 | 4.3 | 9.6 | 0.00 | 0.02 | 0.01 | 35 | 1017.7 |
| 20260503203101 | 64 | 290 | 2.6 | 10.4 | 0.00 | 0.02 | 0.01 | 37 | 1017.9 |
| 20260503201557 | 65 | 286 | 7.0 | 10.4 | 0.00 | 0.02 | 0.01 | 36 | 1018.3 |
| 20260503200155 | 64 | 238 | 3.5 | 9.6 | 0.00 | 0.02 | 0.01 | 39 | 1018.5 |
| 20260503194551 | 64 | 345 | 7.0 | 10.4 | 0.00 | 0.02 | 0.01 | 38 | 1018.7 |
| 20260503193055 | 64 | 302 | 2.6 | 7.8 | 0.00 | 0.02 | 0.01 | 36 | 1019.0 |
| 20260503191544 | 63 | 295 | 7.0 | 10.4 | 0.00 | 0.02 | 0.01 | 35 | 1019.2 |
| 20260503190044 | 62 | 325 | 4.3 | 10.4 | 0.00 | 0.02 | 0.01 | 41 | 1019.4 |
| 20260503184551 | 63 | 250 | 0.9 | 6.1 | 0.00 | 0.02 | 0.01 | 41 | 1019.6 |
| 20260503183037 | 62 | 350 | 2.6 | 10.4 | 0.00 | 0.02 | 0.01 | 40 | 1019.8 |
| 20260503181536 | 61 | 283 | 3.5 | 10.4 | 0.00 | 0.02 | 0.01 | 40 | 1020.1 |
| 20260503180031 | 61 | 355 | 0.9 | 7.8 | 0.00 | 0.02 | 0.01 | 40 | 1020.1 |
| 20260503174537 | 61 | 281 | 3.5 | 7.0 | 0.00 | 0.02 | 0.01 | 39 | 1020.5 |
| 20260503173027 | 59 | 8 | 2.6 | 8.7 | 0.00 | 0.02 | 0.01 | 40 | 1020.8 |
| 20260503171524 | 59 | 304 | 3.5 | 7.0 | 0.00 | 0.02 | 0.01 | 40 | 1020.9 |
| 20260503081508 | 39 | 148 | 0.0 | 0.0 | 0.00 | 0.01 | 0.00 | 96 | 1020.1 |
| 20260503071600 | 40 | 139 | 0.0 | 0.0 | 0.00 | 0.01 | 0.00 | 96 | 1019.9 |
| 20260503054551 | 39 | 140 | 0.0 | 0.0 | 0.00 | 0.01 | 0.00 | 95 | 1019.7 |
| 20260503053049 | 39 | 140 | 0.0 | 0.0 | 0.00 | 0.01 | 0.00 | 95 | 1019.6 |
| 20260503051547 | 40 | 140 | 0.0 | 0.9 | 0.00 | 0.01 | 0.00 | 95 | 1019.7 |
| 20260503050044 | 40 | 140 | 0.0 | 0.0 | 0.00 | 0.01 | 0.00 | 95 | 1019.5 |
| 20260503044547 | 41 | 140 | 0.0 | 0.0 | 0.00 | 0.01 | 0.01 | 96 | 1019.3 |
| 20260503043042 | 41 | 140 | 0.0 | 0.0 | 0.00 | 0.01 | 0.01 | 95 | 1019.1 |